TimeCST,TemperatureF,Dew PointF,Humidity,Sea Level PressureIn,VisibilityMPH,Wind Direction,Wind SpeedMPH,Gust SpeedMPH,PrecipitationIn,Events,Conditions,WindDirDegrees,DateUTC
12:53 AM,39.9,30.0,68,30.26,10.0,WNW,9.2,-,N/A,,Clear,300,2012-11-23 06:53:00
1:53 AM,39.9,30.9,70,30.27,10.0,West,11.5,-,N/A,,Clear,270,2012-11-23 07:53:00
2:53 AM,39.9,28.0,63,30.28,10.0,WNW,15.0,-,N/A,,Clear,300,2012-11-23 08:53:00
3:53 AM,37.0,18.0,46,30.32,10.0,NW,23.0,36.8,N/A,,Clear,310,2012-11-23 09:53:00
4:53 AM,35.1,17.1,48,30.36,10.0,NNW,31.1,39.1,N/A,,Overcast,330,2012-11-23 10:53:00
5:53 AM,30.9,14.0,50,30.41,10.0,NW,19.6,31.1,N/A,,Clear,320,2012-11-23 11:53:00
6:53 AM,28.9,15.1,56,30.44,10.0,NW,18.4,-,N/A,,Clear,320,2012-11-23 12:53:00
7:53 AM,28.9,15.1,56,30.46,10.0,NNW,17.3,25.3,N/A,,Clear,330,2012-11-23 13:53:00
8:53 AM,30.0,15.1,54,30.49,10.0,NW,18.4,28.8,N/A,,Clear,320,2012-11-23 14:53:00
9:53 AM,32.0,14.0,48,30.51,10.0,NW,19.6,27.6,N/A,,Clear,320,2012-11-23 15:53:00
10:53 AM,34.0,14.0,44,30.52,10.0,NW,17.3,25.3,N/A,,Clear,310,2012-11-23 16:53:00
11:53 AM,35.1,12.9,40,30.50,10.0,NW,18.4,25.3,N/A,,Clear,320,2012-11-23 17:53:00
12:53 PM,36.0,10.9,36,30.48,10.0,NW,18.4,26.5,N/A,,Clear,310,2012-11-23 18:53:00
1:53 PM,37.9,10.9,33,30.47,10.0,NW,18.4,24.2,N/A,,Clear,320,2012-11-23 19:53:00
2:53 PM,39.0,10.0,30,30.47,10.0,NW,13.8,20.7,N/A,,Clear,320,2012-11-23 20:53:00
3:53 PM,37.0,8.1,30,30.47,10.0,NNW,15.0,-,N/A,,Clear,340,2012-11-23 21:53:00
4:53 PM,35.1,9.0,34,30.47,10.0,NNW,10.4,-,N/A,,Clear,330,2012-11-23 22:53:00
5:53 PM,30.9,9.0,40,30.48,10.0,NW,8.1,-,N/A,,Clear,320,2012-11-23 23:53:00
6:53 PM,27.0,9.0,47,30.48,10.0,NW,5.8,-,N/A,,Clear,320,2012-11-24 00:53:00
7:53 PM,26.1,9.0,49,30.49,10.0,NNW,6.9,-,N/A,,Clear,330,2012-11-24 01:53:00
8:53 PM,24.1,12.0,60,30.48,10.0,Calm,Calm,-,N/A,,Clear,0,2012-11-24 02:53:00
9:53 PM,25.0,10.0,53,30.48,10.0,Calm,Calm,-,N/A,,Clear,0,2012-11-24 03:53:00
10:53 PM,21.0,10.9,65,30.47,10.0,Calm,Calm,-,N/A,,Clear,0,2012-11-24 04:53:00
11:53 PM,19.9,12.9,74,30.46,10.0,Calm,Calm,-,N/A,,Clear,0,2012-11-24 05:53:00